Time,TemperatureF,DewpointF,PressureIn,WindDirection,WindDirectionDegrees,WindSpeedMPH,WindSpeedGustMPH,Humidity,HourlyPrecipIn,Conditions,Clouds,dailyrainin,SoftwareType,DateUTC
2013-01-27 00:00:00,55.0,54.5,30.27,North,0,0.0,0.0,98,0.00,,,0.01,meteohub,2013-01-27 05:00:00,
2013-01-27 00:01:00,55.0,54.5,30.27,North,0,0.0,0.0,98,0.00,,,0.01,meteohub,2013-01-27 05:01:00,
2013-01-27 00:02:00,55.0,54.5,30.27,North,0,0.0,0.0,98,0.00,,,0.01,meteohub,2013-01-27 05:02:00,
2013-01-27 00:07:00,55.0,54.5,30.27,North,0,0.0,0.0,98,0.00,,,0.00,meteohub,2013-01-27 05:07:00,
2013-01-27 00:12:00,54.9,54.3,30.27,North,0,0.0,0.0,98,0.00,,,0.00,meteohub,2013-01-27 05:12:00,
2013-01-27 00:17:00,54.7,54.1,30.27,North,0,0.0,0.0,98,0.00,,,0.00,meteohub,2013-01-27 05:17:00,
2013-01-27 00:22:00,54.7,54.1,30.26,North,0,0.0,0.0,98,0.00,,,0.00,meteohub,2013-01-27 05:22:00,
2013-01-27 00:27:00,54.5,54.1,30.26,North,0,0.0,0.0,99,0.00,,,0.00,meteohub,2013-01-27 05:27:00,
2013-01-27 00:32:00,54.5,54.0,30.26,North,0,0.0,0.0,98,0.00,,,0.00,meteohub,2013-01-27 05:32:00,
2013-01-27 00:37:00,54.3,53.8,30.27,North,0,0.0,0.0,98,0.00,,,0.00,meteohub,2013-01-27 05:37:00,
2013-01-27 00:42:00,54.1,53.6,30.27,North,0,0.0,0.0,98,0.00,,,0.00,meteohub,2013-01-27 05:42:00,
2013-01-27 00:48:00,53.8,53.2,30.27,North,0,0.0,0.0,98,0.00,,,0.00,meteohub,2013-01-27 05:48:00,
2013-01-27 00:53:00,53.6,53.2,30.27,North,0,0.0,0.0,99,0.00,,,0.00,meteohub,2013-01-27 05:53:00,
2013-01-27 00:58:00,53.6,53.2,30.27,North,0,0.0,0.0,99,0.00,,,0.00,meteohub,2013-01-27 05:58:00,
2013-01-27 01:03:00,53.6,53.2,30.27,North,0,0.0,0.0,99,0.00,,,0.00,meteohub,2013-01-27 06:03:00,
2013-01-27 01:08:00,53.8,53.4,30.27,North,0,0.0,0.0,99,0.00,,,0.00,meteohub,2013-01-27 06:08:00,
2013-01-27 01:13:00,53.6,53.2,30.27,North,0,0.0,0.0,99,0.00,,,0.00,meteohub,2013-01-27 06:13:00,
2013-01-27 01:18:00,53.6,53.2,30.27,North,0,0.0,0.0,99,0.00,,,0.00,meteohub,2013-01-27 06:18:00,
2013-01-27 01:23:00,53.6,53.2,30.27,North,0,0.0,0.0,99,0.00,,,0.00,meteohub,2013-01-27 06:23:00,
2013-01-27 01:28:00,53.8,53.4,30.27,North,0,0.0,0.0,99,0.00,,,0.00,meteohub,2013-01-27 06:28:00,
2013-01-27 01:33:00,53.6,53.2,30.27,North,0,0.0,0.0,99,0.00,,,0.00,meteohub,2013-01-27 06:33:00,
2013-01-27 01:38:00,53.4,53.1,30.27,North,0,0.0,0.0,99,0.00,,,0.00,meteohub,2013-01-27 06:38:00,
2013-01-27 01:43:00,53.1,52.7,30.27,North,0,0.0,0.0,99,0.00,,,0.00,meteohub,2013-01-27 06:43:00,
2013-01-27 01:48:00,52.9,52.5,30.27,North,0,0.0,0.0,99,0.00,,,0.00,meteohub,2013-01-27 06:48:00,
2013-01-27 01:54:00,52.9,52.5,30.27,North,0,0.0,0.0,99,0.00,,,0.00,meteohub,2013-01-27 06:54:00,
2013-01-27 01:59:00,53.1,52.7,30.27,North,0,0.0,0.0,99,0.00,,,0.00,meteohub,2013-01-27 06:59:00,
2013-01-27 02:04:00,53.1,52.7,30.27,North,0,0.0,0.0,99,0.00,,,0.00,meteohub,2013-01-27 07:04:00,
2013-01-27 02:09:00,53.2,52.9,30.27,North,0,0.0,0.0,99,0.00,,,0.00,meteohub,2013-01-27 07:09:00,
2013-01-27 02:14:00,53.1,52.7,30.27,North,0,0.0,0.0,99,0.00,,,0.00,meteohub,2013-01-27 07:14:00,
2013-01-27 02:19:00,52.9,52.5,30.27,North,0,0.0,0.0,99,0.00,,,0.00,meteohub,2013-01-27 07:19:00,
2013-01-27 02:24:00,52.9,52.5,30.27,North,0,0.0,1.0,99,0.00,,,0.00,meteohub,2013-01-27 07:24:00,
2013-01-27 02:29:00,52.9,52.5,30.27,North,0,0.0,1.0,99,0.00,,,0.00,meteohub,2013-01-27 07:29:00,
2013-01-27 02:34:00,52.7,52.3,30.27,North,0,0.0,1.0,99,0.00,,,0.00,meteohub,2013-01-27 07:34:00,
2013-01-27 02:39:00,52.5,52.2,30.27,North,0,0.0,1.0,99,0.00,,,0.00,meteohub,2013-01-27 07:39:00,
2013-01-27 02:44:00,52.5,52.2,30.27,North,0,0.0,0.0,99,0.00,,,0.00,meteohub,2013-01-27 07:44:00,
2013-01-27 02:50:00,52.3,52.0,30.27,North,0,0.0,0.0,99,0.00,,,0.00,meteohub,2013-01-27 07:50:00,
2013-01-27 02:55:00,52.2,51.8,30.27,North,0,0.0,0.0,99,0.00,,,0.00,meteohub,2013-01-27 07:55:00,
2013-01-27 03:00:00,52.0,51.6,30.27,North,0,0.0,0.0,99,0.00,,,0.00,meteohub,2013-01-27 08:00:00,
2013-01-27 03:05:00,52.0,51.6,30.27,North,0,0.0,0.0,99,0.00,,,0.00,meteohub,2013-01-27 08:05:00,
2013-01-27 03:10:00,51.8,51.4,30.27,North,0,0.0,0.0,99,0.00,,,0.00,meteohub,2013-01-27 08:10:00,
2013-01-27 03:15:00,51.8,51.4,30.27,North,0,0.0,0.0,99,0.00,,,0.00,meteohub,2013-01-27 08:15:00,
2013-01-27 03:20:00,51.8,51.4,30.27,North,0,0.0,0.0,99,0.00,,,0.00,meteohub,2013-01-27 08:20:00,
2013-01-27 03:25:00,51.6,51.3,30.27,North,0,0.0,0.0,99,0.00,,,0.00,meteohub,2013-01-27 08:25:00,
2013-01-27 03:30:00,51.6,51.3,30.27,North,0,0.0,0.0,99,0.00,,,0.00,meteohub,2013-01-27 08:30:00,
2013-01-27 03:35:00,51.6,51.3,30.27,North,0,0.0,0.0,99,0.00,,,0.00,meteohub,2013-01-27 08:35:00,
2013-01-27 03:40:00,51.4,51.1,30.27,North,0,0.0,0.0,99,0.00,,,0.00,meteohub,2013-01-27 08:40:00,
2013-01-27 03:45:00,51.4,51.1,30.27,North,0,0.0,0.0,99,0.00,,,0.00,meteohub,2013-01-27 08:45:00,
2013-01-27 03:50:00,51.3,50.9,30.27,North,0,0.0,0.0,99,0.00,,,0.00,meteohub,2013-01-27 08:50:00,
2013-01-27 03:55:00,51.3,50.9,30.27,North,0,0.0,0.0,99,0.00,,,0.00,meteohub,2013-01-27 08:55:00,
2013-01-27 04:01:00,51.1,50.7,30.27,North,0,0.0,0.0,99,0.00,,,0.00,meteohub,2013-01-27 09:01:00,
2013-01-27 04:06:00,51.1,50.7,30.27,North,0,0.0,0.0,99,0.00,,,0.00,meteohub,2013-01-27 09:06:00,
2013-01-27 04:11:00,51.1,50.7,30.27,North,0,0.0,0.0,99,0.00,,,0.00,meteohub,2013-01-27 09:11:00,
2013-01-27 04:16:00,50.9,50.5,30.27,North,0,0.0,0.0,99,0.00,,,0.00,meteohub,2013-01-27 09:16:00,
2013-01-27 04:21:00,50.9,50.5,30.27,North,0,0.0,0.0,99,0.00,,,0.00,meteohub,2013-01-27 09:21:00,
2013-01-27 04:26:00,50.7,50.4,30.27,North,0,0.0,0.0,99,0.00,,,0.00,meteohub,2013-01-27 09:26:00,
2013-01-27 04:31:00,50.7,50.4,30.27,North,0,0.0,0.0,99,0.00,,,0.00,meteohub,2013-01-27 09:31:00,
2013-01-27 04:36:00,50.9,50.5,30.27,North,0,0.0,0.0,99,0.00,,,0.00,meteohub,2013-01-27 09:36:00,
2013-01-27 04:41:00,51.1,50.7,30.27,North,0,0.0,0.0,99,0.00,,,0.00,meteohub,2013-01-27 09:41:00,
2013-01-27 04:46:00,51.1,50.7,30.27,North,0,0.0,0.0,99,0.00,,,0.00,meteohub,2013-01-27 09:46:00,
2013-01-27 04:51:00,51.1,50.7,30.27,North,0,0.0,0.0,99,0.00,,,0.00,meteohub,2013-01-27 09:51:00,
2013-01-27 04:56:00,51.1,50.7,30.27,North,0,0.0,0.0,99,0.00,,,0.00,meteohub,2013-01-27 09:56:00,
2013-01-27 05:02:00,50.9,50.5,30.27,North,0,0.0,0.0,99,0.00,,,0.00,meteohub,2013-01-27 10:02:00,
2013-01-27 05:07:00,50.9,50.5,30.27,North,0,0.0,0.0,99,0.00,,,0.00,meteohub,2013-01-27 10:07:00,
2013-01-27 05:12:00,50.9,50.5,30.27,North,0,0.0,0.0,99,0.00,,,0.00,meteohub,2013-01-27 10:12:00,
2013-01-27 05:17:00,50.9,50.5,30.27,North,0,1.0,1.0,99,0.00,,,0.00,meteohub,2013-01-27 10:17:00,
2013-01-27 05:22:00,50.7,50.4,30.27,North,0,0.0,1.0,99,0.00,,,0.00,meteohub,2013-01-27 10:22:00,
2013-01-27 05:27:00,50.7,50.4,30.27,North,0,0.0,1.0,99,0.00,,,0.00,meteohub,2013-01-27 10:27:00,
2013-01-27 05:32:00,50.5,50.2,30.27,North,0,0.0,1.0,99,0.00,,,0.00,meteohub,2013-01-27 10:32:00,
2013-01-27 05:37:00,50.4,50.0,30.27,North,0,0.0,0.0,99,0.00,,,0.00,meteohub,2013-01-27 10:37:00,
2013-01-27 05:42:00,50.4,50.0,30.27,North,0,0.0,0.0,99,0.00,,,0.00,meteohub,2013-01-27 10:42:00,
2013-01-27 05:47:00,50.4,50.0,30.27,North,0,0.0,0.0,99,0.00,,,0.00,meteohub,2013-01-27 10:47:00,
2013-01-27 05:52:00,50.5,50.2,30.28,North,0,1.0,0.0,99,0.00,,,0.00,meteohub,2013-01-27 10:52:00,
2013-01-27 05:57:00,50.4,50.0,30.28,North,0,0.0,1.0,99,0.00,,,0.00,meteohub,2013-01-27 10:57:00,
2013-01-27 06:02:00,50.4,50.0,30.28,North,0,0.0,1.0,99,0.00,,,0.00,meteohub,2013-01-27 11:02:00,
2013-01-27 06:07:00,50.4,50.0,30.28,North,0,0.0,1.0,99,0.00,,,0.00,meteohub,2013-01-27 11:07:00,
2013-01-27 06:12:00,50.4,50.0,30.28,North,0,2.0,0.0,99,0.00,,,0.00,meteohub,2013-01-27 11:12:00,
2013-01-27 06:17:00,50.4,50.0,30.29,NE,45,2.0,2.0,99,0.00,,,0.00,meteohub,2013-01-27 11:17:00,
2013-01-27 06:22:00,50.5,50.2,30.29,NE,45,2.0,2.0,99,0.00,,,0.00,meteohub,2013-01-27 11:22:00,
2013-01-27 06:27:00,50.5,50.2,30.30,NE,45,1.0,2.0,99,0.00,,,0.00,meteohub,2013-01-27 11:27:00,
2013-01-27 06:32:00,50.5,50.2,30.29,NE,45,2.0,2.0,99,0.00,,,0.00,meteohub,2013-01-27 11:32:00,
2013-01-27 06:37:00,50.7,50.4,30.30,NE,45,2.0,2.0,99,0.00,,,0.00,meteohub,2013-01-27 11:37:00,
2013-01-27 06:42:00,50.9,50.5,30.30,NE,45,1.0,2.0,99,0.00,,,0.00,meteohub,2013-01-27 11:42:00,
2013-01-27 06:47:00,51.4,51.1,30.30,NE,45,1.0,2.0,99,0.00,,,0.00,meteohub,2013-01-27 11:47:00,
2013-01-27 06:52:00,51.4,51.1,30.30,NE,45,0.0,2.0,99,0.00,,,0.00,meteohub,2013-01-27 11:52:00,
2013-01-27 06:57:00,51.3,50.9,30.30,NE,45,0.0,2.0,99,0.00,,,0.00,meteohub,2013-01-27 11:57:00,
2013-01-27 07:02:00,51.3,50.9,30.30,NE,45,1.0,1.0,99,0.00,,,0.00,meteohub,2013-01-27 12:02:00,
2013-01-27 07:07:00,51.3,50.9,30.30,NE,45,1.0,1.0,99,0.00,,,0.00,meteohub,2013-01-27 12:07:00,
2013-01-27 07:12:00,51.1,50.7,30.31,NE,45,0.0,1.0,99,0.00,,,0.00,meteohub,2013-01-27 12:12:00,
2013-01-27 07:17:00,51.1,50.7,30.31,NE,45,2.0,2.0,99,0.00,,,0.00,meteohub,2013-01-27 12:17:00,
2013-01-27 07:22:00,51.1,50.7,30.31,NE,45,1.0,2.0,99,0.00,,,0.00,meteohub,2013-01-27 12:22:00,
2013-01-27 07:27:00,51.3,50.9,30.31,NE,45,1.0,2.0,99,0.00,,,0.00,meteohub,2013-01-27 12:27:00,
2013-01-27 07:32:00,51.1,50.7,30.31,NE,45,0.0,2.0,99,0.00,,,0.00,meteohub,2013-01-27 12:32:00,
2013-01-27 07:37:00,51.3,50.9,30.31,NE,45,2.0,2.0,99,0.00,,,0.00,meteohub,2013-01-27 12:37:00,
2013-01-27 07:42:00,51.6,51.3,30.31,NE,45,1.0,2.0,99,0.00,,,0.00,meteohub,2013-01-27 12:42:00,
2013-01-27 07:47:00,52.2,51.8,30.32,West,270,2.0,2.0,99,0.00,,,0.00,meteohub,2013-01-27 12:47:00,
2013-01-27 07:52:00,52.5,52.2,30.31,NE,45,0.0,2.0,99,0.00,,,0.00,meteohub,2013-01-27 12:52:00,
2013-01-27 07:57:00,52.9,52.5,30.31,NE,45,1.0,2.0,99,0.00,,,0.00,meteohub,2013-01-27 12:57:00,
2013-01-27 08:02:00,54.7,54.3,30.31,North,0,0.0,2.0,99,0.00,,,0.00,meteohub,2013-01-27 13:02:00,
2013-01-27 08:07:00,56.3,55.9,30.31,North,0,1.0,2.0,99,0.00,,,0.00,meteohub,2013-01-27 13:07:00,
2013-01-27 08:12:00,57.2,56.8,30.31,North,0,1.0,2.0,99,0.00,,,0.00,meteohub,2013-01-27 13:12:00,
2013-01-27 08:17:00,58.1,57.7,30.32,NE,45,1.0,2.0,99,0.00,,,0.00,meteohub,2013-01-27 13:17:00,
2013-01-27 08:22:00,58.5,58.1,30.32,North,0,4.0,4.0,99,0.00,,,0.00,meteohub,2013-01-27 13:22:00,
2013-01-27 08:27:00,59.2,58.8,30.32,North,0,2.0,4.0,99,0.00,,,0.00,meteohub,2013-01-27 13:27:00,
2013-01-27 08:32:00,59.5,59.2,30.32,North,0,1.0,4.0,99,0.00,,,0.00,meteohub,2013-01-27 13:32:00,
2013-01-27 08:37:00,59.5,59.2,30.32,NW,315,2.0,4.0,99,0.00,,,0.00,meteohub,2013-01-27 13:37:00,
2013-01-27 08:42:00,60.4,60.1,30.32,North,0,2.0,3.0,99,0.00,,,0.00,meteohub,2013-01-27 13:42:00,
2013-01-27 08:47:00,60.8,60.4,30.32,SW,225,2.0,3.0,99,0.00,,,0.00,meteohub,2013-01-27 13:47:00,
2013-01-27 08:52:00,61.3,61.0,30.32,SW,225,2.0,3.0,99,0.00,,,0.00,meteohub,2013-01-27 13:52:00,
2013-01-27 08:57:00,61.7,61.3,30.32,West,270,3.0,3.0,99,0.00,,,0.00,meteohub,2013-01-27 13:57:00,
2013-01-27 09:02:00,61.9,61.5,30.33,NE,45,4.0,4.0,99,0.00,,,0.00,meteohub,2013-01-27 14:02:00,
2013-01-27 09:07:00,61.9,61.5,30.33,NE,45,4.0,4.0,99,0.00,,,0.00,meteohub,2013-01-27 14:07:00,
2013-01-27 09:12:00,62.8,61.9,30.33,NE,45,4.0,4.0,97,0.00,,,0.00,meteohub,2013-01-27 14:12:00,
2013-01-27 09:17:00,63.0,61.5,30.33,NW,315,4.0,5.0,95,0.00,,,0.00,meteohub,2013-01-27 14:17:00,
2013-01-27 09:22:00,63.3,61.5,30.33,NW,315,3.0,7.0,94,0.00,,,0.00,meteohub,2013-01-27 14:22:00,
2013-01-27 09:27:00,64.4,62.4,30.34,SW,225,4.0,7.0,93,0.00,,,0.00,meteohub,2013-01-27 14:27:00,
2013-01-27 09:32:00,66.6,63.9,30.34,NW,315,2.0,7.0,91,0.00,,,0.00,meteohub,2013-01-27 14:32:00,
2013-01-27 09:37:00,66.6,61.9,30.34,WNW,293,4.0,7.0,85,0.00,,,0.00,meteohub,2013-01-27 14:37:00,
2013-01-27 09:42:00,67.8,62.4,30.34,North,0,7.0,7.0,83,0.00,,,0.00,meteohub,2013-01-27 14:42:00,
2013-01-27 09:47:00,67.5,62.1,30.33,SW,225,4.0,7.0,83,0.00,,,0.00,meteohub,2013-01-27 14:47:00,
2013-01-27 09:52:00,67.1,61.2,30.34,NW,315,7.0,8.0,81,0.00,,,0.00,meteohub,2013-01-27 14:52:00,
2013-01-27 09:57:00,67.8,61.3,30.34,West,270,4.0,8.0,80,0.00,,,0.00,meteohub,2013-01-27 14:57:00,
2013-01-27 10:02:00,67.8,61.3,30.34,North,0,3.0,8.0,80,0.00,,,0.00,meteohub,2013-01-27 15:02:00,
2013-01-27 10:07:00,68.4,60.4,30.34,North,0,8.0,9.0,76,0.00,,,0.00,meteohub,2013-01-27 15:07:00,
2013-01-27 10:12:00,68.7,60.4,30.34,NE,45,5.0,9.0,75,0.00,,,0.00,meteohub,2013-01-27 15:12:00,
2013-01-27 10:17:00,69.4,60.8,30.34,NW,315,4.0,11.0,74,0.00,,,0.00,meteohub,2013-01-27 15:17:00,
2013-01-27 10:22:00,70.5,60.6,30.34,NE,45,5.0,11.0,71,0.00,,,0.00,meteohub,2013-01-27 15:22:00,
2013-01-27 10:28:00,70.2,59.5,30.34,NW,315,7.0,11.0,69,0.00,,,0.00,meteohub,2013-01-27 15:28:00,
2013-01-27 10:33:00,70.3,59.7,30.34,NW,315,4.0,10.0,69,0.00,,,0.00,meteohub,2013-01-27 15:33:00,
2013-01-27 10:38:00,70.2,58.6,30.34,NE,45,6.0,10.0,67,0.00,,,0.00,meteohub,2013-01-27 15:38:00,
2013-01-27 10:43:00,70.2,57.9,30.34,North,0,10.0,10.0,65,0.00,,,0.00,meteohub,2013-01-27 15:43:00,
2013-01-27 10:48:00,70.7,58.8,30.34,North,0,5.0,13.0,66,0.00,,,0.00,meteohub,2013-01-27 15:48:00,
2013-01-27 10:53:00,71.2,58.8,30.34,NE,45,6.0,13.0,65,0.00,,,0.00,meteohub,2013-01-27 15:53:00,
2013-01-27 10:58:00,71.1,58.3,30.35,North,0,9.0,13.0,64,0.00,,,0.00,meteohub,2013-01-27 15:58:00,
2013-01-27 11:03:00,71.2,58.5,30.34,NW,315,8.0,10.0,64,0.00,,,0.00,meteohub,2013-01-27 16:03:00,
2013-01-27 11:08:00,72.3,59.0,30.34,NE,45,5.0,10.0,63,0.00,,,0.00,meteohub,2013-01-27 16:08:00,
2013-01-27 11:13:00,72.3,58.1,30.34,North,0,10.0,10.0,61,0.00,,,0.00,meteohub,2013-01-27 16:13:00,
2013-01-27 11:19:00,72.0,57.7,30.34,North,0,7.0,11.0,61,0.00,,,0.00,meteohub,2013-01-27 16:19:00,
2013-01-27 11:24:00,72.3,58.6,30.34,NW,315,6.0,11.0,62,0.00,,,0.00,meteohub,2013-01-27 16:24:00,
2013-01-27 11:29:00,73.2,58.5,30.33,WNW,293,5.0,11.0,60,0.00,,,0.00,meteohub,2013-01-27 16:29:00,
2013-01-27 11:34:00,73.4,57.7,30.33,NE,45,8.0,10.0,58,0.00,,,0.00,meteohub,2013-01-27 16:34:00,
2013-01-27 11:39:00,73.6,57.4,30.33,North,0,8.0,9.0,57,0.00,,,0.00,meteohub,2013-01-27 16:39:00,
2013-01-27 11:44:00,73.2,58.1,30.33,NW,315,4.0,10.0,59,0.00,,,0.00,meteohub,2013-01-27 16:44:00,
2013-01-27 11:49:00,74.3,57.0,30.33,NNE,23,7.0,10.0,55,0.00,,,0.00,meteohub,2013-01-27 16:49:00,
2013-01-27 11:54:00,74.8,57.6,30.32,NW,315,7.0,10.0,55,0.00,,,0.00,meteohub,2013-01-27 16:54:00,
2013-01-27 11:59:00,75.2,55.8,30.32,North,0,7.0,10.0,51,0.00,,,0.00,meteohub,2013-01-27 16:59:00,
2013-01-27 12:04:00,74.8,52.7,30.32,NE,45,5.0,8.0,46,0.00,,,0.00,meteohub,2013-01-27 17:04:00,
2013-01-27 12:09:00,75.4,53.2,30.32,NE,45,7.0,7.0,46,0.00,,,0.00,meteohub,2013-01-27 17:09:00,
2013-01-27 12:15:00,75.4,52.5,30.32,North,0,5.0,8.0,45,0.00,,,0.00,meteohub,2013-01-27 17:15:00,
2013-01-27 12:20:00,75.4,54.3,30.32,NW,315,5.0,8.0,48,0.00,,,0.00,meteohub,2013-01-27 17:20:00,
2013-01-27 12:25:00,75.2,53.6,30.32,North,0,8.0,8.0,47,0.00,,,0.00,meteohub,2013-01-27 17:25:00,
2013-01-27 12:30:00,75.0,53.4,30.31,North,0,9.0,11.0,47,0.00,,,0.00,meteohub,2013-01-27 17:30:00,
2013-01-27 12:35:00,75.4,54.3,30.31,NE,45,4.0,11.0,48,0.00,,,0.00,meteohub,2013-01-27 17:35:00,
2013-01-27 12:40:00,75.7,54.1,30.31,North,0,4.0,11.0,47,0.00,,,0.00,meteohub,2013-01-27 17:40:00,
2013-01-27 12:45:00,75.7,54.1,30.30,North,0,7.0,9.0,47,0.00,,,0.00,meteohub,2013-01-27 17:45:00,
2013-01-27 12:50:00,76.1,54.3,30.30,NE,45,8.0,11.0,47,0.00,,,0.00,meteohub,2013-01-27 17:50:00,
2013-01-27 12:55:00,75.9,55.4,30.30,NW,315,4.0,11.0,49,0.00,,,0.00,meteohub,2013-01-27 17:55:00,
2013-01-27 13:00:00,76.3,54.5,30.30,NE,45,5.0,9.0,47,0.00,,,0.00,meteohub,2013-01-27 18:00:00,
2013-01-27 13:05:00,76.5,55.4,30.29,North,0,6.0,9.0,48,0.00,,,0.00,meteohub,2013-01-27 18:05:00,
2013-01-27 13:10:00,76.8,53.2,30.29,North,0,12.0,12.0,44,0.00,,,0.00,meteohub,2013-01-27 18:10:00,
2013-01-27 13:15:00,76.5,54.1,30.29,North,0,8.0,12.0,46,0.00,,,0.00,meteohub,2013-01-27 18:15:00,
2013-01-27 13:21:00,76.5,52.9,30.29,North,0,6.0,12.0,44,0.00,,,0.00,meteohub,2013-01-27 18:21:00,
2013-01-27 13:26:00,76.8,53.2,30.28,North,0,8.0,12.0,44,0.00,,,0.00,meteohub,2013-01-27 18:26:00,
2013-01-27 13:31:00,76.5,52.9,30.28,NE,45,4.0,10.0,44,0.00,,,0.00,meteohub,2013-01-27 18:31:00,
2013-01-27 13:36:00,77.2,52.9,30.28,NE,45,4.0,9.0,43,0.00,,,0.00,meteohub,2013-01-27 18:36:00,
2013-01-27 13:41:00,77.5,52.7,30.28,North,0,8.0,9.0,42,0.00,,,0.00,meteohub,2013-01-27 18:41:00,
2013-01-27 13:46:00,77.5,52.0,30.27,North,0,6.0,8.0,41,0.00,,,0.00,meteohub,2013-01-27 18:46:00,
2013-01-27 13:51:00,78.3,51.3,30.27,NE,45,5.0,8.0,39,0.00,,,0.00,meteohub,2013-01-27 18:51:00,
2013-01-27 13:56:00,77.9,51.6,30.27,North,0,8.0,9.0,40,0.00,,,0.00,meteohub,2013-01-27 18:56:00,
2013-01-27 14:01:00,77.7,50.7,30.27,North,0,4.0,9.0,39,0.00,,,0.00,meteohub,2013-01-27 19:01:00,
2013-01-27 14:06:00,78.1,51.8,30.27,NE,45,4.0,9.0,40,0.00,,,0.00,meteohub,2013-01-27 19:06:00,
2013-01-27 14:12:00,78.8,51.1,30.27,NW,315,4.0,8.0,38,0.00,,,0.00,meteohub,2013-01-27 19:12:00,
2013-01-27 14:17:00,77.9,50.2,30.27,North,0,10.0,10.0,38,0.00,,,0.00,meteohub,2013-01-27 19:17:00,
2013-01-27 14:22:00,77.7,51.4,30.27,North,0,3.0,10.0,40,0.00,,,0.00,meteohub,2013-01-27 19:22:00,
2013-01-27 14:27:00,78.1,50.4,30.27,North,0,7.0,10.0,38,0.00,,,0.00,meteohub,2013-01-27 19:27:00,
2013-01-27 14:32:00,78.3,50.5,30.27,WNW,293,10.0,10.0,38,0.00,,,0.00,meteohub,2013-01-27 19:32:00,
2013-01-27 14:37:00,78.6,51.6,30.26,NW,315,4.0,10.0,39,0.00,,,0.00,meteohub,2013-01-27 19:37:00,
2013-01-27 14:42:00,79.3,51.4,30.26,WNW,293,7.0,10.0,38,0.00,,,0.00,meteohub,2013-01-27 19:42:00,
2013-01-27 14:47:00,79.0,50.5,30.26,NW,315,6.0,10.0,37,0.00,,,0.00,meteohub,2013-01-27 19:47:00,
2013-01-27 14:52:00,79.0,52.0,30.26,SW,225,4.0,10.0,39,0.00,,,0.00,meteohub,2013-01-27 19:52:00,
2013-01-27 14:57:00,79.9,51.3,30.26,NW,315,8.0,10.0,37,0.00,,,0.00,meteohub,2013-01-27 19:57:00,
2013-01-27 15:02:00,80.1,52.2,30.25,West,270,2.0,8.0,38,0.00,,,0.00,meteohub,2013-01-27 20:02:00,
2013-01-27 15:07:00,79.5,50.9,30.25,East,90,4.0,8.0,37,0.00,,,0.00,meteohub,2013-01-27 20:07:00,
2013-01-27 15:12:00,78.6,50.2,30.25,NW,315,8.0,8.0,37,0.00,,,0.00,meteohub,2013-01-27 20:12:00,
2013-01-27 15:17:00,77.9,50.9,30.25,North,0,2.0,11.0,39,0.00,,,0.00,meteohub,2013-01-27 20:17:00,
2013-01-27 15:22:00,77.5,51.3,30.25,North,0,4.0,11.0,40,0.00,,,0.00,meteohub,2013-01-27 20:22:00,
2013-01-27 15:27:00,77.4,51.1,30.25,North,0,8.0,11.0,40,0.00,,,0.00,meteohub,2013-01-27 20:27:00,
2013-01-27 15:32:00,77.2,51.6,30.25,North,0,6.0,8.0,41,0.00,,,0.00,meteohub,2013-01-27 20:32:00,
2013-01-27 15:37:00,77.4,51.1,30.24,NE,45,4.0,9.0,40,0.00,,,0.00,meteohub,2013-01-27 20:37:00,
2013-01-27 15:42:00,77.5,50.5,30.25,North,0,5.0,9.0,39,0.00,,,0.00,meteohub,2013-01-27 20:42:00,
2013-01-27 15:47:00,77.9,54.3,30.25,NW,315,5.0,8.0,44,0.00,,,0.00,meteohub,2013-01-27 20:47:00,
2013-01-27 15:52:00,77.5,57.4,30.25,SW,225,5.0,9.0,50,0.00,,,0.00,meteohub,2013-01-27 20:52:00,
2013-01-27 15:57:00,76.6,56.7,30.25,SW,225,4.0,9.0,50,0.00,,,0.00,meteohub,2013-01-27 20:57:00,
2013-01-27 16:02:00,75.7,56.8,30.25,NW,315,4.0,9.0,52,0.00,,,0.00,meteohub,2013-01-27 21:02:00,
2013-01-27 16:07:00,74.8,56.5,30.25,SW,225,3.0,5.0,53,0.00,,,0.00,meteohub,2013-01-27 21:07:00,
2013-01-27 16:12:00,74.3,56.1,30.25,South,180,4.0,11.0,53,0.00,,,0.00,meteohub,2013-01-27 21:12:00,
2013-01-27 16:17:00,73.9,56.3,30.25,SW,225,6.0,11.0,54,0.00,,,0.00,meteohub,2013-01-27 21:17:00,
2013-01-27 16:22:00,74.3,57.6,30.25,West,270,4.0,11.0,56,0.00,,,0.00,meteohub,2013-01-27 21:22:00,
2013-01-27 16:27:00,74.1,58.5,30.25,SW,225,6.0,11.0,58,0.00,,,0.00,meteohub,2013-01-27 21:27:00,
2013-01-27 16:32:00,74.1,58.5,30.25,NW,315,5.0,8.0,58,0.00,,,0.00,meteohub,2013-01-27 21:32:00,
2013-01-27 16:37:00,73.9,58.3,30.25,North,0,7.0,8.0,58,0.00,,,0.00,meteohub,2013-01-27 21:37:00,
2013-01-27 16:42:00,73.9,57.7,30.25,NW,315,4.0,8.0,57,0.00,,,0.00,meteohub,2013-01-27 21:42:00,
2013-01-27 16:47:00,74.8,57.6,30.25,West,270,5.0,8.0,55,0.00,,,0.00,meteohub,2013-01-27 21:47:00,
2013-01-27 16:52:00,76.1,58.3,30.25,West,270,7.0,7.0,54,0.00,,,0.00,meteohub,2013-01-27 21:52:00,
2013-01-27 16:57:00,75.4,57.6,30.25,West,270,5.0,7.0,54,0.00,,,0.00,meteohub,2013-01-27 21:57:00,
2013-01-27 17:02:00,75.0,57.7,30.25,SW,225,8.0,8.0,55,0.00,,,0.00,meteohub,2013-01-27 22:02:00,
2013-01-27 17:07:00,74.7,57.9,30.26,SW,225,6.0,8.0,56,0.00,,,0.00,meteohub,2013-01-27 22:07:00,
2013-01-27 17:12:00,74.3,58.1,30.25,SW,225,5.0,8.0,57,0.00,,,0.00,meteohub,2013-01-27 22:12:00,
2013-01-27 17:17:00,74.1,58.5,30.26,SW,225,4.0,8.0,58,0.00,,,0.00,meteohub,2013-01-27 22:17:00,
2013-01-27 17:22:00,74.1,58.8,30.26,SW,225,4.0,7.0,59,0.00,,,0.00,meteohub,2013-01-27 22:22:00,
2013-01-27 17:27:00,73.6,58.8,30.26,West,270,5.0,7.0,60,0.00,,,0.00,meteohub,2013-01-27 22:27:00,
2013-01-27 17:32:00,73.0,58.8,30.26,West,270,7.0,7.0,61,0.00,,,0.00,meteohub,2013-01-27 22:32:00,
2013-01-27 17:37:00,73.0,58.8,30.26,West,270,7.0,7.0,61,0.00,,,0.00,meteohub,2013-01-27 22:37:00,
2013-01-27 17:42:00,71.1,58.6,30.26,SW,225,3.0,7.0,65,0.00,,,0.00,meteohub,2013-01-27 22:42:00,
2013-01-27 17:47:00,70.3,59.4,30.27,South,180,4.0,7.0,68,0.00,,,0.00,meteohub,2013-01-27 22:47:00,
2013-01-27 17:52:00,70.0,59.7,30.27,West,270,4.0,7.0,70,0.00,,,0.00,meteohub,2013-01-27 22:52:00,
2013-01-27 17:57:00,69.4,60.1,30.27,West,270,4.0,4.0,72,0.00,,,0.00,meteohub,2013-01-27 22:57:00,
2013-01-27 18:02:00,69.3,60.3,30.27,SW,225,4.0,5.0,73,0.00,,,0.00,meteohub,2013-01-27 23:02:00,
2013-01-27 18:07:00,69.3,60.3,30.27,SW,225,4.0,5.0,73,0.00,,,0.00,meteohub,2013-01-27 23:07:00,
2013-01-27 18:12:00,68.4,60.1,30.27,SW,225,2.0,5.0,75,0.00,,,0.00,meteohub,2013-01-27 23:12:00,
2013-01-27 18:17:00,68.2,60.6,30.28,SW,225,2.0,4.0,77,0.00,,,0.00,meteohub,2013-01-27 23:17:00,
2013-01-27 18:22:00,67.8,60.6,30.28,SW,225,2.0,4.0,78,0.00,,,0.00,meteohub,2013-01-27 23:22:00,
2013-01-27 18:27:00,67.6,61.0,30.28,SW,225,3.0,4.0,79,0.00,,,0.00,meteohub,2013-01-27 23:27:00,
2013-01-27 18:32:00,67.3,61.0,30.28,SW,225,2.0,4.0,80,0.00,,,0.00,meteohub,2013-01-27 23:32:00,
2013-01-27 18:37:00,67.1,61.2,30.28,SW,225,2.0,4.0,81,0.00,,,0.00,meteohub,2013-01-27 23:37:00,
2013-01-27 18:42:00,66.9,61.5,30.28,SW,225,4.0,4.0,83,0.00,,,0.00,meteohub,2013-01-27 23:42:00,
2013-01-27 18:47:00,66.7,61.7,30.28,West,270,2.0,5.0,84,0.00,,,0.00,meteohub,2013-01-27 23:47:00,
2013-01-27 18:52:00,66.4,61.3,30.29,West,270,3.0,5.0,84,0.00,,,0.00,meteohub,2013-01-27 23:52:00,
2013-01-27 18:57:00,66.2,61.2,30.29,West,270,4.0,5.0,84,0.00,,,0.00,meteohub,2013-01-27 23:57:00,
2013-01-27 19:02:00,66.0,61.0,30.28,SW,225,3.0,4.0,84,0.00,,,0.00,meteohub,2013-01-28 00:02:00,
2013-01-27 19:07:00,66.0,61.0,30.29,SW,225,3.0,4.0,84,0.00,,,0.00,meteohub,2013-01-28 00:07:00,
2013-01-27 19:12:00,65.3,60.3,30.29,SW,225,1.0,4.0,84,0.00,,,0.00,meteohub,2013-01-28 00:12:00,
2013-01-27 19:17:00,64.9,60.6,30.29,West,270,2.0,3.0,86,0.00,,,0.00,meteohub,2013-01-28 00:17:00,
2013-01-27 19:22:00,64.8,60.8,30.29,West,270,1.0,3.0,87,0.00,,,0.00,meteohub,2013-01-28 00:22:00,
2013-01-27 19:27:00,64.6,61.3,30.29,NW,315,2.0,2.0,89,0.00,,,0.00,meteohub,2013-01-28 00:27:00,
2013-01-27 19:32:00,64.6,61.3,30.29,West,270,2.0,3.0,89,0.00,,,0.00,meteohub,2013-01-28 00:32:00,
2013-01-27 19:37:00,64.4,61.2,30.30,West,270,1.0,3.0,89,0.00,,,0.00,meteohub,2013-01-28 00:37:00,
2013-01-27 19:43:00,64.2,61.0,30.29,West,270,0.0,3.0,89,0.00,,,0.00,meteohub,2013-01-28 00:43:00,
2013-01-27 19:48:00,63.9,60.6,30.29,West,270,0.0,3.0,89,0.00,,,0.00,meteohub,2013-01-28 00:48:00,
2013-01-27 19:53:00,63.5,60.4,30.30,West,270,0.0,2.0,90,0.00,,,0.00,meteohub,2013-01-28 00:53:00,
2013-01-27 19:58:00,63.3,60.6,30.30,West,270,1.0,2.0,91,0.00,,,0.00,meteohub,2013-01-28 00:58:00,
2013-01-27 20:03:00,63.3,60.6,30.30,West,270,1.0,2.0,91,0.00,,,0.00,meteohub,2013-01-28 01:03:00,
2013-01-27 20:08:00,63.1,60.8,30.30,West,270,0.0,2.0,92,0.00,,,0.00,meteohub,2013-01-28 01:08:00,
2013-01-27 20:13:00,63.0,61.0,30.30,West,270,1.0,2.0,93,0.00,,,0.00,meteohub,2013-01-28 01:13:00,
2013-01-27 20:18:00,63.0,61.0,30.30,SW,225,2.0,2.0,93,0.00,,,0.00,meteohub,2013-01-28 01:18:00,
2013-01-27 20:23:00,63.0,61.2,30.30,SW,225,2.0,2.0,94,0.00,,,0.00,meteohub,2013-01-28 01:23:00,
2013-01-27 20:28:00,63.0,61.5,30.30,SW,225,2.0,2.0,95,0.00,,,0.00,meteohub,2013-01-28 01:28:00,
2013-01-27 20:33:00,63.0,61.2,30.30,West,270,0.0,2.0,94,0.00,,,0.00,meteohub,2013-01-28 01:33:00,
2013-01-27 20:39:00,62.8,61.0,30.30,SW,225,0.0,2.0,94,0.00,,,0.00,meteohub,2013-01-28 01:39:00,
2013-01-27 20:44:00,62.6,60.8,30.30,SW,225,0.0,2.0,94,0.00,,,0.00,meteohub,2013-01-28 01:44:00,
2013-01-27 20:49:00,62.2,60.4,30.30,North,0,0.0,2.0,94,0.00,,,0.00,meteohub,2013-01-28 01:49:00,
2013-01-27 20:54:00,62.1,60.3,30.31,North,0,0.0,2.0,94,0.00,,,0.00,meteohub,2013-01-28 01:54:00,
2013-01-27 20:59:00,61.7,59.9,30.31,North,0,0.0,0.0,94,0.00,,,0.00,meteohub,2013-01-28 01:59:00,
2013-01-27 21:04:00,61.7,59.9,30.31,North,0,0.0,0.0,94,0.00,,,0.00,meteohub,2013-01-28 02:04:00,
2013-01-27 21:09:00,61.2,59.4,30.31,North,0,0.0,0.0,94,0.00,,,0.00,meteohub,2013-01-28 02:09:00,
2013-01-27 21:14:00,61.0,59.2,30.31,North,0,0.0,0.0,94,0.00,,,0.00,meteohub,2013-01-28 02:14:00,
2013-01-27 21:19:00,60.8,59.0,30.31,North,0,0.0,0.0,94,0.00,,,0.00,meteohub,2013-01-28 02:19:00,
2013-01-27 21:25:00,60.6,59.2,30.31,North,0,0.0,0.0,95,0.00,,,0.00,meteohub,2013-01-28 02:25:00,
2013-01-27 21:30:00,60.4,59.0,30.31,North,0,0.0,0.0,95,0.00,,,0.00,meteohub,2013-01-28 02:30:00,
2013-01-27 21:35:00,60.4,59.0,30.31,East,90,0.0,0.0,95,0.00,,,0.00,meteohub,2013-01-28 02:35:00,
2013-01-27 21:40:00,60.3,58.8,30.31,East,90,0.0,0.0,95,0.00,,,0.00,meteohub,2013-01-28 02:40:00,
2013-01-27 21:45:00,60.3,59.2,30.31,East,90,1.0,0.0,96,0.00,,,0.00,meteohub,2013-01-28 02:45:00,
2013-01-27 21:50:00,60.6,59.5,30.30,North,0,2.0,2.0,96,0.00,,,0.00,meteohub,2013-01-28 02:50:00,
2013-01-27 21:55:00,61.3,60.3,30.31,NW,315,2.0,2.0,96,0.00,,,0.00,meteohub,2013-01-28 02:55:00,
2013-01-27 22:01:00,62.1,60.6,30.31,NE,45,3.0,4.0,95,0.00,,,0.00,meteohub,2013-01-28 03:01:00,
2013-01-27 22:06:00,62.1,60.6,30.31,NE,45,3.0,4.0,95,0.00,,,0.00,meteohub,2013-01-28 03:06:00,
2013-01-27 22:11:00,64.8,60.1,30.31,North,0,2.0,4.0,85,0.00,,,0.00,meteohub,2013-01-28 03:11:00,
2013-01-27 22:16:00,65.3,60.1,30.31,North,0,4.0,4.0,83,0.00,,,0.00,meteohub,2013-01-28 03:16:00,
2013-01-27 22:21:00,65.8,59.9,30.31,NW,315,3.0,4.0,81,0.00,,,0.00,meteohub,2013-01-28 03:21:00,
2013-01-27 22:26:00,66.0,59.7,30.31,North,0,2.0,5.0,80,0.00,,,0.00,meteohub,2013-01-28 03:26:00,
2013-01-27 22:31:00,66.0,59.4,30.31,NW,315,3.0,5.0,79,0.00,,,0.00,meteohub,2013-01-28 03:31:00,
2013-01-27 22:36:00,66.0,59.4,30.31,North,0,3.0,5.0,79,0.00,,,0.00,meteohub,2013-01-28 03:36:00,
2013-01-27 22:41:00,66.0,59.4,30.31,North,0,4.0,4.0,79,0.00,,,0.00,meteohub,2013-01-28 03:41:00,
2013-01-27 22:46:00,66.2,59.5,30.31,North,0,4.0,4.0,79,0.00,,,0.00,meteohub,2013-01-28 03:46:00,
2013-01-27 22:51:00,66.2,59.2,30.31,NW,315,2.0,6.0,78,0.00,,,0.00,meteohub,2013-01-28 03:51:00,
2013-01-27 22:56:00,66.0,59.4,30.31,NE,45,4.0,6.0,79,0.00,,,0.00,meteohub,2013-01-28 03:56:00,
2013-01-27 23:01:00,66.0,59.4,30.31,NE,45,2.0,6.0,79,0.00,,,0.00,meteohub,2013-01-28 04:01:00,
2013-01-27 23:07:00,66.0,59.4,30.31,NE,45,2.0,4.0,79,0.00,,,0.00,meteohub,2013-01-28 04:07:00,
2013-01-27 23:12:00,66.0,59.4,30.32,North,0,4.0,4.0,79,0.00,,,0.00,meteohub,2013-01-28 04:12:00,
2013-01-27 23:17:00,65.8,59.2,30.31,North,0,2.0,4.0,79,0.00,,,0.00,meteohub,2013-01-28 04:17:00,
2013-01-27 23:22:00,65.5,59.2,30.31,North,0,3.0,4.0,80,0.00,,,0.00,meteohub,2013-01-28 04:22:00,
2013-01-27 23:27:00,65.3,59.0,30.31,NE,45,4.0,4.0,80,0.00,,,0.00,meteohub,2013-01-28 04:27:00,
2013-01-27 23:32:00,65.3,59.4,30.31,North,0,2.0,4.0,81,0.00,,,0.00,meteohub,2013-01-28 04:32:00,
2013-01-27 23:37:00,64.9,59.0,30.31,North,0,2.0,4.0,81,0.00,,,0.00,meteohub,2013-01-28 04:37:00,
2013-01-27 23:42:00,64.8,59.2,30.30,NW,315,3.0,4.0,82,0.00,,,0.00,meteohub,2013-01-28 04:42:00,
2013-01-27 23:47:00,64.6,59.4,30.30,NW,315,1.0,4.0,83,0.00,,,0.00,meteohub,2013-01-28 04:47:00,
2013-01-27 23:52:00,64.4,59.5,30.30,NW,315,2.0,4.0,84,0.00,,,0.00,meteohub,2013-01-28 04:52:00,
2013-01-27 23:57:00,64.2,59.5,30.31,North,0,2.0,3.0,85,0.00,,,0.00,meteohub,2013-01-28 04:57:00,